Weather History for Elefsis, Greece

Change the Weather History Date:

Friday, November 30, 2012

  Actual Average Record
Temperature  
Mean Temperature 64 °F -  
Max Temperature 69 °F 55 °F 69 °F (2010)
Min Temperature 59 °F 43 °F 44 °F (1999)
Degree Days  
Heating Degree Days 1    
Growing Degree Days 14 (Base 50)    
Moisture  
Dew Point 58 °F    
Average Humidity 79    
Maximum Humidity 94    
Minimum Humidity 60    
Precipitation  
Precipitation 0.00 in - - ()
Sea Level Pressure  
Sea Level Pressure 29.78 in    
Wind  
Wind Speed 6 mph ()    
Max Wind Speed 21 mph    
Max Gust Speed -    
Visibility 6.1 miles    
Events Rain    
Averages and records for this station are not official NWS values.
T = Trace of Precipitation, MM = Missing Value Source: Averaged Metar Reports

Daily Weather History Graph

Daily Weather History Graph

Search for Another Location

Airport:

Trip Planner

Search our weather history database for the weather conditions in past years. The results will help you decide how hot, cold, wet, or windy it might be!

Date:

Astronomy

Nov. 30, 2012 Rise Set
Actual Time 7:22 AM EET 5:06 PM EET
Civil Twilight 6:53 AM EET 5:35 PM EET
Nautical Twilight 6:20 AM EET 6:08 PM EET
Astronomical Twilight 5:49 AM EET 6:39 PM EET
Moon 6:44 PM EET (11/30) 8:40 AM EET (11/30)
Length of Visible Light 10h 42m
Length of Day
9h 44m
Full, 97% of the Moon is Illuminated
Nov 30
Full
Dec 6
Last Quarter
Dec 13
New
Dec 20
First Quarter
Dec 28
Full

Hourly Weather History & Observations

Time (EET) Temp. Dew Point Humidity Pressure Visibility Wind Dir Wind Speed Gust Speed Precip Events Conditions
12:50 AM 66.2 °F 57.2 °F 73% 29.74 in 6.2 mi South 10.4 mph - N/A   Mostly Cloudy
1:50 AM 66.2 °F 57.2 °F 73% 29.74 in 6.2 mi South 15.0 mph - N/A   Mostly Cloudy
2:50 AM 64.4 °F 57.2 °F 77% 29.74 in 6.2 mi South 12.7 mph - N/A   Mostly Cloudy
3:50 AM 64.4 °F 57.2 °F 77% 29.74 in 6.2 mi South 5.8 mph - N/A   Mostly Cloudy
4:50 AM 62.6 °F 59.0 °F 88% 29.74 in 4.3 mi SW 5.8 mph - N/A Rain Rain
5:20 AM 60.8 °F 57.2 °F 88% 29.74 in 6.2 mi Calm Calm - N/A   Scattered Clouds
6:20 AM 60.8 °F 59.0 °F 94% 29.77 in 6.2 mi Calm Calm - N/A   Mostly Cloudy
6:50 AM 60.8 °F 57.2 °F 88% 29.77 in 6.2 mi Calm Calm - N/A   Scattered Clouds
7:20 AM 60.8 °F 57.2 °F 88% 29.77 in 6.2 mi Calm Calm - N/A   Scattered Clouds
7:50 AM 59.0 °F 57.2 °F 94% 29.77 in 6.2 mi Calm Calm - N/A   Partly Cloudy
8:20 AM 59.0 °F 57.2 °F 94% 29.80 in 6.2 mi Calm Calm - N/A   Partly Cloudy
8:50 AM 59.0 °F 57.2 °F 94% 29.80 in 6.2 mi Calm Calm - N/A   Scattered Clouds
9:20 AM 60.8 °F 57.2 °F 88% 29.80 in 6.2 mi Calm Calm - N/A   Scattered Clouds
9:50 AM 60.8 °F 59.0 °F 94% 29.80 in 6.2 mi Calm Calm - N/A   Scattered Clouds
10:20 AM 62.6 °F 60.8 °F 94% 29.80 in 6.2 mi Calm Calm - N/A   Mostly Cloudy
10:50 AM 64.4 °F 60.8 °F 88% 29.80 in 6.2 mi Calm Calm - N/A   Mostly Cloudy
11:20 AM 66.2 °F 55.4 °F 68% 29.80 in 6.2 mi Calm Calm - N/A   Mostly Cloudy
11:50 AM 66.2 °F 55.4 °F 68% 29.80 in 6.2 mi Calm Calm - N/A   Mostly Cloudy
12:20 PM 68.0 °F 53.6 °F 60% 29.80 in 6.2 mi Calm Calm - N/A   Mostly Cloudy
12:50 PM 68.0 °F 55.4 °F 64% 29.80 in 6.2 mi Calm Calm - N/A   Mostly Cloudy
1:20 PM 69.8 °F 55.4 °F 60% 29.80 in 6.2 mi Calm Calm - N/A   Scattered Clouds
1:50 PM 69.8 °F 59.0 °F 68% 29.77 in 6.2 mi South 10.4 mph - N/A   Scattered Clouds
2:20 PM 69.8 °F 59.0 °F 68% 29.77 in 6.2 mi South 11.5 mph - N/A   Scattered Clouds
2:50 PM 69.8 °F 59.0 °F 68% 29.77 in 6.2 mi SSE 10.4 mph - N/A   Scattered Clouds
3:20 PM 68.0 °F 60.8 °F 78% 29.77 in 6.2 mi South 11.5 mph - N/A   Scattered Clouds
3:50 PM 68.0 °F 59.0 °F 73% 29.77 in 6.2 mi SSE 9.2 mph - N/A   Scattered Clouds
4:20 PM 66.2 °F 59.0 °F 78% 29.77 in 6.2 mi SSE 11.5 mph - N/A   Scattered Clouds
4:50 PM 66.2 °F 59.0 °F 78% 29.77 in 6.2 mi South 12.7 mph - N/A   Scattered Clouds
5:20 PM 66.2 °F 59.0 °F 78% 29.77 in 6.2 mi South 13.8 mph - N/A   Scattered Clouds
5:50 PM 66.2 °F 59.0 °F 78% 29.77 in 6.2 mi SSE 11.5 mph - N/A   Scattered Clouds
6:20 PM 66.2 °F 59.0 °F 78% 29.77 in 6.2 mi South 6.9 mph - N/A   Scattered Clouds
6:50 PM 66.2 °F 59.0 °F 78% 29.77 in 6.2 mi SSE 10.4 mph - N/A   Scattered Clouds
7:20 PM 66.2 °F 59.0 °F 78% 29.80 in 6.2 mi SSE 6.9 mph - N/A   Mostly Cloudy
7:50 PM 66.2 °F 59.0 °F 78% 29.77 in 6.2 mi South 8.1 mph - N/A   Mostly Cloudy
8:20 PM 66.2 °F 59.0 °F 78% 29.77 in 6.2 mi South 5.8 mph - N/A   Mostly Cloudy
8:50 PM 66.2 °F 59.0 °F 78% 29.80 in 6.2 mi SSE 15.0 mph - N/A   Scattered Clouds
9:20 PM 68.0 °F 57.2 °F 68% 29.80 in 6.2 mi South 18.4 mph - N/A   Scattered Clouds
9:50 PM 64.4 °F 53.6 °F 68% 29.83 in 5.6 mi SSE 20.7 mph - N/A Rain Light Rain
10:20 PM 62.6 °F 53.6 °F 72% 29.86 in 6.2 mi South 18.4 mph - N/A   Scattered Clouds
10:50 PM 60.8 °F 53.6 °F 77% 29.86 in 5.6 mi SE 9.2 mph - N/A Rain Light Rain
11:50 PM 59.0 °F 55.4 °F 88% 29.86 in 5.6 mi East 3.5 mph - N/A Rain Light Rain